User: anonymous   Login
Location: Unspecified
(0.0000°N, 0.0000°E)
Time: 00:05:21
(UTC+00:00)
Language:

STARLINK-1058 - Orbit

View from above orbital plane
View from above orbital plane
View from above satellite
View from above satellite

Ground track
Ground track

The orbit data is extracted from the following two-line orbital elements,

1 44763C 19074BC  20057.86012510  .00003118  00000-0  21341-3 0   574
2 44763  53.0166  35.4054 0001432  70.8761 216.9064 15.05600571    16
Epoch (UTC): 26 February 2020 20:38:34
Eccentricity: 0.0001432
inclination: 53.0166°
perigee height: 548 km
apogee height: 550 km
right ascension of ascending node: 35.4054°
argument of perigee: 70.8761°
revolutions per day: 15.05600571
mean anomaly at epoch: 216.9064°
orbit number at epoch: 1

The dashed part of the orbit path shows where the satellite is in the earth's shadow,  

DLR